SCP
0 0 0 0 0 0 0 0 0 0 0 0 0 0 0 0 0 0 0 0 0 0 0 0 0 0 0 0 0 0 0 0 0 0 0 0 0 0 0 0 0 0 0
0 0 0 0 0 0 0 0 0 0 0 0 0 0 0 0 0 0 0 0 0 0 0 0 0 0 0 0 0 0 0 0 0 0 0 0 0 0 0 0 0 0 0
0 0 0 0 0 0 0 0 0 0 0 0 0 0 0 0 0 0 0 0 0 0 0 0 0 0 0 0 0 0 0 0 0 0 0 0 0 0 0 0 0 0 0
0 0 0 0 0 0 0 0 0 0 0 0 0 0 0 0 0 0 0 0 0 0 0 0 0 0 0 0 0 0 0 0 0 0 0 0 0 0 0 0 0 0 0
0 0 0 0 0 0 0 0 0 0 0 0 0 0 0 0 0 0 0 0 0 0 0 0 0 0 0 0 0 0 0 0 0 0 0 0 0 0 0 0 0 0 0
0 0 0 0 0 0 0 0 0 0 0 0 0 0 0 0 0 0 0 0 0 0 0 0 0 0 0 0 0 0 0 0 0 0 0 0 0 0 0 0 0 0 0
0 0 0 0 0 0 0 0 0 0 0 0 0 0 0 0 0 0 0 0 0 0 0 0 0 0 0 0 0 0 0 0 0 0 0 0 0 0 0 0 0 0 0
0 0 0 0 0 0 0 0 0 0 0 0 0 0 0 0 0 0 0 0 0 0 0 0 0 0 0 0 0 0 0 0 0 0 0 0 0 0 0 0 0 0 0
0 0 0 0 0 0 0 0 0 0 0 0 0 0 0 0 0 0 0 0 0 0 0 0 0 0 0 0 0 0 0 0 0 0 0 0 0 0 0 0 0 0 0
0 0 0 0 0 0 0 0 0 0 0 0 0 0 0 0 0 0 0 0 0 0 0 0 0 0 0 0 0 0 0 0 0 0 0 0 0 0 0 0 0 0 0
0 0 0 0 0 0 0 0 0 0 0 0 0 0 0 0 0 0 0 0 0 0 0 0 0 0 0 0 0 0 0 0 0 0 0 0 0 0 0 0 0 0 0
0 0 0 0 0 0 0 0 0 0 0 0 0 0 0 0 0 0 0 0 0 0 0 0 0 0 0 0 0 0 0 0 0 0 0 0 0 0 0 0 0 0 0
0 0 0 0 0 0 0 0 0 0 0 0 0 0 0 0 0 0 0 0 0 0 0 0 0 0 0 0 0 0 0 0 0 0 0 0 0 0 0 0 0 0 0
0 0 0 0 0 0 0 0 0 0 0 0 0 0 0 0 0 0 0 0 0 0 0 0 0 0 0 0 0 0 0 0 0 0 0 0 0 0 0 0 0 0 0
0 0 0 0 0 0 0 0 0 0 0 0 0 0 0 0 0 0 0 0 0 0 0 0 0 0 0 0 0 0 0 0 0 0 0 0 0 0 0 0 0 0 0
0 0 0 0 0 0 0 0 0 0 0 0 0 0 0 0 0 0 0 0 0 0 0 0 0 0 0 0 0 0 0 0 0 0 0 0 0 0 0 0 0 0 0
0 0 0 0 0 0 0 0 0 0 0 0 0 0 0 0 0 0 0 0 0 0 0 0 0 0 0 0 0 0 0 0 0 0 0 0 0 0 0 0 0 0 0
0 0 0 0 0 0 0 0 0 0 0 0 0 0 0 0 0 0 0 0 0 0 0 0 0 0 0 0 0 0 0 0 0 0 0 0 0 0 0 0 0 0 0
0 0 0 0 0 0 0 0 0 0 0 0 0 0 0 0 0 0 0 0 0 0 0 0 0 0 0 0 0 0 0 0 0 0 0 0 0 0 0 0 0 0 0
0 0 0 0 0 0 0 0 0 0 0 0 0 0 0 0 0 0 0 0 0 0 0 0 0 0 0 0 0 0 0 0 0 0 0 0 0 0 0 0 0 0 0
0 0 0 0 0 0 0 0 0 0 0 0 0 0 0 0 0 0 0 0 0 0 0 0 0 0 0 0 0 0 0 0 0 0 0 0 0 0 0 0 0 0 0
0 0 0 0 0 0 0 0 0 0 0 0 0 0 0 0 0 0 0 0 0 0 0 0 0 0 0 0 0 0 0 0 0 0 0 0 0 0 0 0 0 0 0
0 0 0 0 0 0 0 0 0 0 0 0 0 0 0 0 0 0 0 0 0 0 0 0 0 0 0 0 0 0 0 0 0 0 0 0 0 0 0 0 0 0 0
0 0 0 0 0 0 0 0 0 0 0 0 0 0 0 0 0 0 0 0 0 0 0 0 0 0 0 0 0 0 0 0 0 0 0 0 0 0 0 0 0 0 0
0 0 0 0 0 0 0 0 0 0 0 0 0 0 0 0 0 0 0 0 0 0 0 0 0 0 0 0 0 0 0 0 0 0 0 0 0 0 0 0 0 0 0
0 0 0 0 0 0 0 0 0 0 0 0 0 0 0 0 0 0 0 0 0 0 0 0 0 0 0 0 0 0 0 0 0 0 0 0 0 0 0 0 0 0 0
Wind_Speed
6 6 5 5 6 5 5 5 5 5 4 4 4 3 3 3 2 2 3 7 6 4 4 4 4 4 3 2 2 3 4 3 2 3 3 3 4 4 5 4 4 4 4
5 5 5 5 5 4 5 5 5 4 3 2 2 2 2 1 1 2 3 4 6 4 4 4 4 4 4 4 3 2 2 3 3 3 3 4 4 4 5 5 5 4 4
6 5 5 4 4 4 5 4 3 2 2 2 2 2 1 0 1 1 2 2 2 3 3 3 2 3 3 3 3 1 1 1 2 2 2 3 4 4 5 5 5 5 5
6 5 4 4 4 4 3 3 2 2 1 1 1 1 1 1 0 1 1 2 2 2 1 1 1 1 2 2 2 1 0 1 2 2 2 3 4 5 5 5 5 5 5
6 5 4 4 5 3 3 3 2 2 2 2 1 1 1 1 1 2 2 3 3 2 2 2 3 3 3 1 0 0 1 2 3 3 3 4 5 5 6 6 6 7 6
7 5 4 5 5 4 3 3 3 3 2 2 1 1 1 1 2 2 2 2 2 2 2 2 2 2 5 5 3 2 3 3 3 4 4 5 5 6 6 6 7 7 7
6 6 4 5 5 4 4 4 3 4 3 2 1 1 1 1 2 2 2 2 3 3 3 3 2 2 2 7 7 6 4 3 3 3 4 5 6 6 6 7 7 6 7
6 6 6 5 5 5 5 5 4 3 3 3 3 2 1 1 1 2 2 3 3 2 3 3 3 3 3 2 5 8 7 5 4 4 4 5 7 7 7 7 6 6 6
6 6 7 6 6 6 5 6 5 5 4 3 3 3 2 3 1 1 2 3 3 3 3 2 3 3 4 3 3 5 7 6 5 5 5 6 6 7 7 7 7 6 6
5 6 6 6 6 6 6 5 5 4 5 4 3 2 2 1 2 1 1 2 3 3 3 2 3 3 3 3 4 6 6 6 6 6 5 6 7 8 8 8 8 7 6
5 5 6 5 5 5 5 5 4 4 3 4 3 2 2 1 1 2 2 2 1 1 2 3 3 3 3 3 3 5 6 6 6 6 6 7 8 9 8 8 8 7 6
4 6 6 5 5 5 6 6 6 5 4 4 3 3 3 2 2 2 2 2 2 2 2 2 3 3 2 3 4 5 6 6 6 6 6 7 8 9 8 8 8 8 6
4 6 6 5 5 5 6 5 6 6 5 5 4 3 3 2 2 2 2 2 2 1 2 1 2 3 3 3 2 4 5 6 6 7 7 8 8 8 8 8 8 8 7
5 6 6 6 6 6 6 6 5 5 4 4 4 3 2 2 2 2 2 3 2 2 2 3 2 3 3 2 2 3 3 6 7 7 8 8 8 8 8 8 8 8 7
3 5 6 6 6 5 6 6 5 5 5 4 4 4 2 2 2 2 2 2 3 3 3 3 2 2 3 2 2 2 3 5 6 7 7 7 7 8 8 8 7 7 7
4 5 6 6 6 6 6 6 5 6 6 5 4 4 3 2 2 2 2 1 2 3 2 2 2 2 3 3 3 3 3 5 5 6 6 6 7 8 8 8 8 7 7
4 5 6 6 7 7 7 6 5 7 7 6 5 6 5 5 4 3 2 2 1 2 2 1 2 2 3 3 2 2 2 2 2 5 5 5 6 7 8 8 9 8 7
3 3 4 5 6 6 7 7 7 7 7 8 7 6 6 5 5 4 3 3 3 2 3 3 2 2 2 3 3 2 1 2 2 4 4 4 5 6 7 8 9 9 8
2 2 4 5 5 6 6 6 7 6 6 7 7 7 7 7 6 4 4 4 3 2 2 3 2 2 2 2 2 1 1 1 1 2 2 3 4 5 6 8 8 9 9
1 2 3 3 4 5 5 5 6 6 5 5 5 6 6 7 7 6 5 4 4 3 3 3 2 2 2 2 2 2 1 1 1 1 1 2 2 4 5 7 8 8 9
1 1 2 3 3 3 4 5 5 6 6 6 5 5 5 5 6 6 5 5 4 3 3 3 3 3 3 3 3 3 3 2 1 1 1 0 1 1 2 4 6 7 8
0 1 2 3 3 3 6 7 6 5 6 6 6 5 5 5 6 7 7 6 6 5 4 4 3 4 4 4 3 3 3 3 2 2 2 1 1 1 1 1 3 6 6
1 0 1 2 2 3 7 8 8 5 6 6 6 6 5 5 7 5 6 5 4 4 4 4 4 4 4 5 6 5 4 3 3 3 2 1 1 1 1 2 4 4 5
1 1 1 2 2 3 6 7 8 5 5 5 6 7 6 6 6 7 5 4 3 2 2 2 3 2 3 4 6 6 5 4 2 1 2 2 2 1 1 1 2 2 3
2 2 2 2 3 4 7 8 7 4 4 5 5 6 7 6 11 11 7 5 4 2 3 4 4 3 4 6 6 5 5 4 2 2 1 2 2 1 1 1 1 1 2
2 1 2 2 3 4 7 9 8 4 5 4 4 5 9 9 12 12 7 7 6 4 4 4 3 3 3 4 6 4 5 4 3 2 3 3 2 2 1 1 1 0 0
Wind_Direction
158 159 166 171 179 181 174 184 207 207 201 196 205 205 199 214 187 144 149 173 178 198 230 252 262 266 263 263 266 251 240 240 271 295 303 310 316 317 318 320 322 318 319
160 161 165 171 180 176 172 188 205 195 192 184 195 214 219 207 152 134 140 169 183 195 222 239 256 267 266 268 271 279 254 245 257 274 293 303 307 308 311 308 315 319 318
162 163 163 171 178 173 177 187 209 174 172 169 197 224 213 109 69 77 122 142 162 190 204 221 256 275 271 277 277 255 269 304 286 291 304 310 307 303 305 307 306 306 307
166 166 163 173 177 173 170 174 175 155 173 179 199 199 167 108 54 58 77 93 100 107 148 141 94 326 285 289 277 249 56 35 21 356 332 323 319 313 303 303 303 303 305
169 167 166 174 174 165 162 171 168 166 177 191 195 170 177 158 159 88 75 84 78 81 94 109 91 50 35 355 253 234 106 70 49 38 12 348 336 324 316 305 300 296 293
172 168 168 175 168 157 162 169 178 181 175 175 182 192 208 170 132 110 101 96 89 78 76 87 95 65 56 52 54 70 85 69 51 43 23 8 352 337 324 321 308 301 292
172 169 171 172 165 166 174 175 177 182 182 159 138 233 251 189 150 142 127 111 104 90 77 70 71 70 60 56 49 54 60 53 41 32 17 6 354 344 332 324 322 314 304
175 175 173 178 174 171 178 183 177 172 177 165 157 154 215 250 225 144 125 119 122 108 88 74 67 63 69 68 54 48 42 30 23 24 14 6 1 354 348 345 340 339 331
180 177 178 180 179 178 184 185 177 177 183 187 177 168 179 210 166 166 166 150 144 128 113 95 81 64 68 69 58 42 37 28 23 21 19 16 13 8 4 1 356 357 358
184 182 182 186 184 179 182 185 181 181 174 186 198 200 194 152 149 165 191 166 143 132 128 114 99 81 69 68 63 47 37 31 24 17 19 20 17 12 10 8 4 4 5
183 185 186 183 183 178 175 171 169 176 178 180 181 181 199 203 184 166 192 187 170 138 124 117 110 99 84 79 68 51 43 31 24 19 19 22 20 12 6 6 5 1 2
184 187 188 183 179 181 178 175 174 178 185 182 177 172 167 174 193 186 193 187 177 165 128 110 113 111 96 84 73 60 47 32 25 21 24 32 24 16 3 358 0 359 355
192 193 188 183 178 186 181 173 174 178 180 180 184 186 180 187 163 154 162 178 157 163 150 133 121 113 104 93 81 63 56 44 40 37 37 35 27 19 8 359 359 2 2
197 190 188 186 182 179 177 172 176 177 172 178 183 177 165 166 144 152 163 156 168 195 182 173 130 124 111 103 92 67 75 62 56 51 44 36 29 20 12 7 8 7 7
194 184 185 187 182 177 177 171 173 174 166 172 170 161 155 145 124 127 135 150 165 191 210 165 142 133 121 108 106 86 92 80 68 58 54 44 34 28 23 21 18 17 16
191 187 189 185 177 175 175 172 175 173 167 168 160 155 155 147 141 136 136 146 156 167 189 150 139 137 125 122 120 95 96 96 82 68 63 57 47 37 33 32 28 26 25
188 190 190 185 182 181 179 171 173 173 169 165 163 165 166 159 158 156 156 162 171 163 189 154 100 113 125 138 123 98 87 80 91 77 69 65 56 47 42 39 35 33 31
184 186 180 187 187 184 181 178 173 170 172 173 171 168 169 163 165 164 165 175 183 177 171 177 151 141 139 147 138 129 106 93 95 90 75 72 68 59 54 49 42 39 38
167 175 178 186 186 184 182 177 171 172 172 172 169 171 171 167 176 170 169 176 178 170 158 160 160 141 127 130 125 119 131 94 103 104 84 76 74 71 63 55 48 43 42
166 174 176 179 176 172 172 169 163 162 163 161 160 160 163 172 176 170 173 176 169 165 157 159 162 153 143 139 142 158 181 185 177 123 97 93 90 84 73 62 53 46 44
170 179 170 166 166 169 173 168 162 161 159 152 149 148 152 158 163 167 170 168 164 168 168 170 174 162 164 161 185 174 174 166 186 170 136 144 98 67 56 59 60 54 51
113 170 176 169 171 183 171 171 165 160 159 158 154 147 146 146 155 164 164 164 168 172 178 178 184 187 194 186 169 162 150 148 210 213 154 198 126 104 77 61 66 66 62
317 216 192 169 175 174 175 176 176 166 162 164 163 161 164 167 163 156 160 158 162 168 171 172 185 197 192 186 164 162 168 169 190 178 138 174 148 135 130 88 88 80 74
293 259 237 200 189 190 183 183 176 165 161 168 172 171 168 167 171 163 157 153 159 155 158 157 174 193 181 168 165 166 159 124 84 80 125 157 176 161 133 93 113 101 97
299 282 251 217 203 199 189 186 178 163 168 176 179 176 173 175 180 174 161 159 158 156 138 134 136 140 142 148 145 128 133 131 148 202 181 146 155 133 131 161 189 142 128
279 279 267 239 220 212 198 194 187 178 178 179 179 181 185 185 186 182 171 168 175 177 152 138 124 116 111 135 145 148 155 152 149 186 192 150 143 130 155 235 182 178 77